sat.trackr.live / text

‹ back to catalog

YAOGAN-30 10B

NORAD 48861 · 2021-055B

PAYLOAD ACTIVE UNKNOWN

§ Identity

Operator
Country
PRC
Launch date
2021-06-18
Launch site
XICLF
Launch vehicle
Mass (kg)
RCS (m²)

External: N2YO · Heavens-Above · Gunter

§ Orbital elements

Epoch: 2026-09-08T18:06:11.635776Z

Period
95.81 min
Inclination
34.9962°
Eccentricity
0.0003162
Mean motion
15.03035423 rev/d
Perigee alt
555.3 km
Apogee alt
559.7 km
Semi-major
6,935.7 km
B*
1.1376e-4
RAAN
2.4072°
Arg perigee
88.8519°
Mean anomaly
271.2551°
Rev number
28,575

§ Raw data

YAOGAN-30 10B1 48861U 21055B   26251.75430134  .00001534  00000+0  11376-3 0  99962 48861  34.9962   2.4072 0003162  88.8519 271.2551 15.03035423285754

JSON: /api/v1/satellites/48861 · /tle

For live sub-satellite position, see the globe view (requires WebGL).

§ Visibility from observer

Set your observer location to see the next 7 days of passes ≥ 10°. The values pass through the URL so the page stays shareable.

No JS? Fill the form by hand. The geolocation button needs JavaScript.